TimeEST,TemperatureF,Dew PointF,Humidity,Sea Level PressureIn,VisibilityMPH,Wind Direction,Wind SpeedMPH,Gust SpeedMPH,PrecipitationIn,Events,Conditions,WindDirDegrees,DateUTC
12:15 AM,12.2,6.8,79,30.38,10.0,SE,4.6,-,N/A,,Mostly Cloudy,140,2013-11-29 05:15:00
12:35 AM,12.2,6.8,79,30.39,10.0,Calm,Calm,-,N/A,,Mostly Cloudy,0,2013-11-29 05:35:00
12:55 AM,12.2,6.8,79,30.39,10.0,Calm,Calm,-,N/A,,Mostly Cloudy,0,2013-11-29 05:55:00
1:15 AM,12.2,6.8,79,30.40,10.0,Calm,Calm,-,N/A,,Overcast,0,2013-11-29 06:15:00
1:35 AM,14.0,8.6,79,30.41,10.0,Calm,Calm,-,N/A,,Overcast,0,2013-11-29 06:35:00
1:55 AM,14.0,10.4,86,30.41,10.0,Calm,Calm,-,N/A,,Overcast,0,2013-11-29 06:55:00
2:15 AM,12.2,10.4,92,30.42,10.0,Calm,Calm,-,N/A,,Overcast,0,2013-11-29 07:15:00
2:35 AM,14.0,10.4,86,30.43,10.0,Calm,Calm,-,N/A,,Overcast,0,2013-11-29 07:35:00
2:55 AM,12.2,8.6,85,30.42,10.0,SE,4.6,-,N/A,,Overcast,140,2013-11-29 07:55:00
3:15 AM,12.2,10.4,92,30.42,10.0,East,3.5,-,N/A,,Overcast,80,2013-11-29 08:15:00
3:35 AM,12.2,8.6,85,30.42,10.0,SSE,4.6,-,N/A,,Mostly Cloudy,150,2013-11-29 08:35:00
3:55 AM,12.2,10.4,92,30.43,10.0,SE,4.6,-,N/A,,Mostly Cloudy,130,2013-11-29 08:55:00
4:15 AM,12.2,8.6,85,30.43,10.0,ESE,3.5,-,N/A,,Mostly Cloudy,120,2013-11-29 09:15:00
4:35 AM,10.4,6.8,85,30.44,10.0,SE,5.8,-,N/A,,Overcast,130,2013-11-29 09:35:00
4:55 AM,12.2,8.6,85,30.44,10.0,SSE,4.6,-,N/A,,Overcast,150,2013-11-29 09:55:00
5:15 AM,12.2,8.6,85,30.45,10.0,SE,5.8,-,N/A,,Overcast,130,2013-11-29 10:15:00
5:35 AM,10.4,8.6,92,30.46,10.0,SE,5.8,-,N/A,,Overcast,130,2013-11-29 10:35:00
5:55 AM,10.4,6.8,85,30.46,10.0,Calm,Calm,-,N/A,,Mostly Cloudy,0,2013-11-29 10:55:00
6:15 AM,10.4,6.8,85,30.47,10.0,Calm,Calm,-,N/A,,Overcast,0,2013-11-29 11:15:00
6:35 AM,10.4,6.8,85,30.48,10.0,Calm,Calm,-,N/A,,Overcast,0,2013-11-29 11:35:00
6:55 AM,10.4,6.8,85,30.49,10.0,Calm,Calm,-,N/A,,Partly Cloudy,0,2013-11-29 11:55:00
7:15 AM,8.6,6.8,92,30.50,10.0,SE,4.6,-,N/A,,Clear,130,2013-11-29 12:15:00
7:35 AM,8.6,5.0,85,30.51,10.0,ESE,3.5,-,N/A,,Clear,120,2013-11-29 12:35:00
7:55 AM,10.4,6.8,85,30.52,10.0,Calm,Calm,-,N/A,,Clear,0,2013-11-29 12:55:00
8:15 AM,10.4,6.8,85,30.53,10.0,Calm,Calm,-,N/A,,Clear,0,2013-11-29 13:15:00
8:35 AM,10.4,6.8,85,30.54,10.0,SE,3.5,-,N/A,,Clear,130,2013-11-29 13:35:00
8:55 AM,12.2,8.6,85,30.55,10.0,Calm,Calm,-,N/A,,Clear,0,2013-11-29 13:55:00
9:15 AM,14.0,8.6,79,30.55,10.0,Calm,Calm,-,N/A,,Clear,0,2013-11-29 14:15:00
9:35 AM,15.8,8.6,73,30.56,10.0,Calm,Calm,-,N/A,,Clear,0,2013-11-29 14:35:00
9:55 AM,17.6,12.2,79,30.56,10.0,NE,3.5,-,N/A,,Clear,50,2013-11-29 14:55:00
10:15 AM,17.6,8.6,68,30.57,10.0,NNE,5.8,-,N/A,,Clear,20,2013-11-29 15:15:00
10:35 AM,19.4,6.8,58,30.57,10.0,NNW,5.8,-,N/A,,Clear,330,2013-11-29 15:35:00
10:55 AM,19.4,5.0,54,30.56,10.0,NNW,3.5,-,N/A,,Clear,330,2013-11-29 15:55:00
11:15 AM,19.4,6.8,58,30.56,10.0,North,4.6,-,N/A,,Clear,350,2013-11-29 16:15:00
11:35 AM,19.4,5.0,54,30.56,10.0,NW,6.9,-,N/A,,Clear,320,2013-11-29 16:35:00
11:55 AM,21.2,5.0,50,30.56,10.0,NNW,4.6,-,N/A,,Clear,340,2013-11-29 16:55:00
12:15 PM,21.2,6.8,54,30.56,10.0,North,8.1,-,N/A,,Clear,350,2013-11-29 17:15:00
12:35 PM,21.2,5.0,50,30.56,10.0,NNE,10.4,-,N/A,,Clear,20,2013-11-29 17:35:00
12:55 PM,21.2,6.8,54,30.56,10.0,NNW,5.8,-,N/A,,Clear,340,2013-11-29 17:55:00
1:15 PM,21.2,5.0,50,30.56,10.0,North,11.5,-,N/A,,Clear,10,2013-11-29 18:15:00
1:35 PM,21.2,3.2,46,30.56,10.0,NNW,9.2,-,N/A,,Clear,340,2013-11-29 18:35:00
1:55 PM,21.2,3.2,46,30.56,10.0,NNW,8.1,-,N/A,,Clear,340,2013-11-29 18:55:00
2:15 PM,21.2,3.2,46,30.57,10.0,North,6.9,-,N/A,,Clear,350,2013-11-29 19:15:00
2:35 PM,21.2,3.2,46,30.57,10.0,NNE,8.1,-,N/A,,Clear,20,2013-11-29 19:35:00
2:55 PM,21.2,5.0,50,30.58,10.0,North,4.6,-,N/A,,Clear,350,2013-11-29 19:55:00
3:15 PM,21.2,5.0,50,30.58,10.0,North,6.9,-,N/A,,Clear,360,2013-11-29 20:15:00
3:35 PM,21.2,5.0,50,30.58,10.0,NNE,8.1,-,N/A,,Clear,20,2013-11-29 20:35:00
3:55 PM,21.2,3.2,46,30.59,10.0,North,4.6,-,N/A,,Clear,360,2013-11-29 20:55:00
4:15 PM,19.4,5.0,54,30.60,10.0,NNW,3.5,-,N/A,,Clear,340,2013-11-29 21:15:00
4:35 PM,19.4,5.0,54,30.61,10.0,Calm,Calm,-,N/A,,Clear,0,2013-11-29 21:35:00
4:55 PM,19.4,5.0,54,30.61,10.0,Calm,Calm,-,N/A,,Clear,0,2013-11-29 21:55:00
5:15 PM,17.6,8.6,68,30.62,10.0,ESE,3.5,-,N/A,,Clear,120,2013-11-29 22:15:00
5:35 PM,15.8,8.6,73,30.63,10.0,SE,4.6,-,N/A,,Clear,130,2013-11-29 22:35:00
5:55 PM,15.8,6.8,68,30.63,10.0,Calm,Calm,-,N/A,,Clear,0,2013-11-29 22:55:00
6:15 PM,15.8,8.6,73,30.64,10.0,Calm,Calm,-,N/A,,Clear,0,2013-11-29 23:15:00
6:35 PM,12.2,6.8,79,30.64,10.0,SE,6.9,-,N/A,,Clear,140,2013-11-29 23:35:00
6:55 PM,12.2,6.8,79,30.65,10.0,SE,9.2,-,N/A,,Clear,130,2013-11-29 23:55:00
7:15 PM,12.2,6.8,79,30.66,10.0,ESE,9.2,-,N/A,,Mostly Cloudy,120,2013-11-30 00:15:00
7:35 PM,12.2,6.8,79,30.66,10.0,ESE,8.1,-,N/A,,Scattered Clouds,120,2013-11-30 00:35:00
7:55 PM,10.4,5.0,79,30.67,10.0,SE,10.4,-,N/A,,Clear,130,2013-11-30 00:55:00
8:15 PM,10.4,6.8,85,30.67,10.0,ESE,12.7,-,N/A,,Clear,120,2013-11-30 01:15:00
8:35 PM,10.4,6.8,85,30.68,10.0,ESE,9.2,-,N/A,,Clear,120,2013-11-30 01:35:00
8:55 PM,10.4,5.0,79,30.68,10.0,ESE,11.5,-,N/A,,Clear,120,2013-11-30 01:55:00
9:15 PM,10.4,5.0,79,30.68,10.0,ESE,10.4,-,N/A,,Clear,120,2013-11-30 02:15:00
9:35 PM,8.6,3.2,79,30.69,10.0,ESE,9.2,-,N/A,,Clear,120,2013-11-30 02:35:00
9:55 PM,8.6,3.2,79,30.69,10.0,ESE,11.5,-,N/A,,Clear,120,2013-11-30 02:55:00
10:15 PM,8.6,3.2,79,30.70,10.0,ESE,10.4,-,N/A,,Clear,120,2013-11-30 03:15:00
10:35 PM,8.6,3.2,79,30.71,10.0,ESE,10.4,-,N/A,,Clear,120,2013-11-30 03:35:00
10:55 PM,8.6,1.4,73,30.71,10.0,SE,6.9,-,N/A,,Clear,130,2013-11-30 03:55:00
11:15 PM,6.8,3.2,85,30.71,10.0,ESE,10.4,-,N/A,,Clear,120,2013-11-30 04:15:00
11:35 PM,6.8,3.2,85,30.71,10.0,ESE,11.5,-,N/A,,Clear,120,2013-11-30 04:35:00
11:55 PM,8.6,3.2,79,30.71,10.0,ESE,8.1,-,N/A,,Clear,120,2013-11-30 04:55:00